Content
SEND FEEDBACK

Daily
Averages
Monthly
Summary
Spain

PALMA, SPAIN


Home > Europe > Spain
Elevation: 26 feet     Latitude: 39 33N     Longitude: 002 44E

WEATHER
 
SELECT A DAY
Number of Records: 297,711;   Date Range: 7/1/96 - 8/12/14
 
SHARE

PRINT THIS DATA

[ ← Previous Day ]
WEATHER ALMANAC - JANUARY 1, 2013
[ Next Day → ]
[ °C ]   °F
Weather ElementAverageHighLow
Temperature56.3 °F60.8 °F (3:00 pm)50 °F (11:30 pm)
Dewpoint46.6 °F51.8 °F (1:00 am)42 °F (7:00 pm)
Humidity69.7 %82 % (1:00 am)52 % (1:00 pm)
Barometer30.05 in30.12 in (12:30 am)30.01 in (5:30 am)
Wind Speed9.3 mph17.3 mph (1:00 am)
Weather ElementAverage
Visibility6.8 mi
Wind DirectionWSW (236.3 °)

Weather ElementTotal
Precipitation---
Heating Degree Days9.6 (Base 65)
Growing Degree Days5.4 (Base 50)
Averaged from 50 records on January 1, 2013
WEATHER CONDITIONS BREAKOUT
WIND DIRECTION BREAKOUT
WEATHER BY HOUR - JANUARY 1, 2013
[ °C ]   °F
Local TimeTemperatureDewpointHumidityBarometerVisibilityWind DirectionWind SpeedGust SpeedPrecipitationEventsConditions
12:30 AM57.2 °F50.0 °F77 %30.12 in6.2 miSSW (210°)13.8 mphScattered Clouds
1:00 AM56.0 °F47.0 °F65 %30.11 in14.0 miSW (230°)17.3 mphPartly Cloudy
1:00 AM57.2 °F51.8 °F82 %30.09 in6.2 miSW (220°)15.0 mphScattered Clouds
1:30 AM57.2 °F50.0 °F77 %30.09 in6.2 miWSW (240°)15.0 mphScattered Clouds
2:00 AM55.4 °F50.0 °F82 %30.06 in6.2 miWSW (240°)13.8 mphScattered Clouds
2:30 AM55.4 °F48.2 °F77 %30.06 in6.2 miSW (230°)13.8 mphPartly Cloudy
3:00 AM55.4 °F48.2 °F77 %30.06 in6.2 miSW (230°)10.4 mphPartly Cloudy
3:30 AM55.4 °F48.2 °F77 %30.04 in6.2 miSW (230°)13.8 mphPartly Cloudy
4:00 AM55.4 °F48.2 °F77 %30.04 in6.2 miSW (230°)12.7 mphPartly Cloudy
4:30 AM57.2 °F50.0 °F77 %30.04 in6.2 miSW (230°)13.8 mphScattered Clouds
5:00 AM57.2 °F50.0 °F77 %30.04 in6.2 miSW (230°)15.0 mphScattered Clouds
5:30 AM57.2 °F48.2 °F72 %30.01 in6.2 miWSW (240°)13.8 mphScattered Clouds
6:00 AM57.2 °F48.2 °F72 %30.01 in6.2 miWSW (240°)13.8 mphPartly Cloudy
6:30 AM57.2 °F48.2 °F72 %30.01 in6.2 miWSW (240°)15.0 mphPartly Cloudy
7:00 AM54.0 °F43.0 °F58 %30.03 in14.0 miWSW (250°)16.1 mphPartly Cloudy
7:00 AM55.4 °F46.4 °F72 %30.01 in6.2 miWSW (250°)16.1 mphPartly Cloudy
7:30 AM55.4 °F46.4 °F72 %30.01 in6.2 miWSW (250°)13.8 mphScattered Clouds
8:00 AM55.4 °F48.2 °F77 %30.04 in6.2 miWSW (250°)13.8 mphScattered Clouds
8:30 AM55.4 °F48.2 °F77 %30.04 in6.2 miWSW (250°)12.7 mphScattered Clouds
9:00 AM55.4 °F46.4 °F72 %30.04 in6.2 miWSW (250°)11.5 mphScattered Clouds
9:30 AM55.4 °F44.6 °F67 %30.04 in6.2 miWest (270°)10.4 mphPartly Cloudy
10:00 AM57.2 °F46.4 °F67 %30.04 in6.2 miWest (280°)6.9 mphPartly Cloudy
10:30 AM57.2 °F46.4 °F67 %30.06 in6.2 miWest (260°)10.4 mphPartly Cloudy
11:00 AM57.2 °F46.4 °F67 %30.06 in6.2 miWest (260°)11.5 mphPartly Cloudy
11:30 AM59.0 °F46.4 °F63 %30.06 in6.2 miWest (260°)11.5 mphPartly Cloudy
12:00 PM57.2 °F46.4 °F67 %30.06 in6.2 miWest (270°)11.5 mphPartly Cloudy
12:30 PM57.2 °F48.2 °F72 %30.04 in6.2 miWest (260°)9.2 mphScattered Clouds
1:00 PM57.0 °F44.0 °F52 %30.05 in16.0 miWSW (250°)9.2 mphOvercast
1:00 PM57.2 °F48.2 °F72 %30.04 in6.2 miWSW (250°)8.1 mphScattered Clouds
1:30 PM59.0 °F48.2 °F67 %30.04 in6.2 miWSW (240°)6.9 mphScattered Clouds
2:00 PM59.0 °F48.2 °F67 %30.04 in6.2 miSW (230°)6.9 mphScattered Clouds
2:30 PM59.0 °F48.2 °F67 %30.01 in6.2 miSW (230°)5.8 mphScattered Clouds
3:00 PM60.8 °F44.6 °F55 %30.01 in6.2 miNW (310°)3.5 mphScattered Clouds
3:30 PM59.0 °F44.6 °F59 %30.01 in6.2 miNW (310°)3.5 mphScattered Clouds
4:00 PM59.0 °F44.6 °F59 %30.01 in6.2 miNW (310°)6.9 mphScattered Clouds
4:30 PM59.0 °F44.6 °F59 %30.04 in6.2 miNW (310°)10.4 mphScattered Clouds
5:00 PM57.2 °F46.4 °F67 %30.04 in6.2 miNW (320°)11.5 mphScattered Clouds
5:30 PM55.4 °F44.6 °F67 %30.04 in6.2 miNW (310°)6.9 mphScattered Clouds
6:00 PM55.4 °F44.6 °F67 %30.06 in6.2 miWNW (300°)3.5 mphMostly Cloudy
6:30 PM55.4 °F44.6 °F67 %30.06 in6.2 miVariable1.2 mphMostly Cloudy
7:00 PM54.0 °F42.0 °F54 %30.09 in12.0 miCalmMostly Cloudy
7:00 PM55.4 °F44.6 °F67 %30.06 in6.2 miCalmMostly Cloudy
7:30 PM55.4 °F44.6 °F67 %30.06 in6.2 miCalmMostly Cloudy
8:00 PM55.4 °F46.4 °F72 %30.09 in6.2 miCalmMostly Cloudy
9:00 PM55.4 °F46.4 °F72 %30.09 in6.2 miVariable2.3 mphMostly Cloudy
9:30 PM53.6 °F46.4 °F77 %30.09 in6.2 miNW (310°)3.5 mphMostly Cloudy
10:00 PM55.4 °F44.6 °F67 %30.09 in6.2 miNW (320°)9.2 mphScattered Clouds
10:30 PM53.6 °F44.6 °F72 %30.09 in6.2 miNW (320°)5.8 mphScattered Clouds
11:00 PM51.8 °F44.6 °F76 %30.09 in6.2 miNW (310°)3.5 mphScattered Clouds
11:30 PM50.0 °F42.8 °F76 %30.09 in6.2 miNorth (350°)3.5 mphPartly Cloudy
Hourly data recorded from LEPA, located miles away from Palma, Spain







STORIES FROM OUR PARTNERS